Overview Statistics Trail Chart Weather Telemetry Raw packets
 

This is the latest recevied weather packets stored in our database for station/object N2ZVN. If no packets are shown the sender has not sent any weather packets the latest 10 day(s).

<< 22 23 24 25 26 27 28 >>
Time Temp. Humidity Pressure Rain* Wind** Luminosity Snow
1788554029 23.89° C 59% 1014.1 hPa 0 mm - 90 W/m² -
1788553724 24.44° C 57% 1014.1 hPa 0 mm - 86 W/m² -
1788553420 24.44° C 57% 1014.1 hPa 0 mm - 96 W/m² -
1788553116 24.44° C 59% 1014 hPa 0 mm - 116 W/m² -
1788552816 24.44° C 57% 1014.3 hPa 0 mm - 113 W/m² -
1788552511 24.44° C 59% 1014.2 hPa 0 mm - 123 W/m² -
1788552210 24.44° C 59% 1014.3 hPa 0 mm - 121 W/m² -
1788551905 23.89° C 59% 1014.4 hPa 0 mm - 128 W/m² -
1788551603 23.89° C 58% 1014.5 hPa 0 mm - 125 W/m² -
1788551324 23.89° C 62% 1014.3 hPa 0 mm - 124 W/m² -
1788550997 24.44° C 60% 1014.6 hPa 0 mm - 112 W/m² -
1788550692 24.44° C 57% 1014.8 hPa 0 mm - 140 W/m² -
1788550388 24.44° C 61% 1014.8 hPa 0 mm - 146 W/m² -
1788550083 24.44° C 60% 1015 hPa 0 mm - 116 W/m² -
1788549778 24.44° C 58% 1015 hPa 0 mm - 109 W/m² -
1788549475 24.44° C 61% 1014.9 hPa 0 mm - 139 W/m² -
1788549171 24.44° C 61% 1015 hPa 0 mm - 114 W/m² -
1788548867 24.44° C 59% 1015 hPa 0 mm - 101 W/m² -
1788548563 24.44° C 60% 1015.2 hPa 0 mm - 80 W/m² -
1788548259 24.44° C 60% 1015.2 hPa 0 mm - 70 W/m² -
1788547954 24.44° C 59% 1015 hPa 0 mm - 76 W/m² -
1788547652 24.44° C 60% 1015.4 hPa 0 mm - 160 W/m² -
1788547349 24.44° C 60% 1015.2 hPa 0 mm - 57 W/m² -
1788547045 24.44° C 64% 1015.4 hPa 0 mm - 428 W/m² -
1788546744 24.44° C 65% 1015.3 hPa 0 mm - 124 W/m² -

* Rain latest hour (hover to see other rain measurements)
** Current wind speed in m/s (hover to see current wind gust speed)